Location: Nashville
(36.1660°N, 86.7840°W)
Time: 17:28:48
(UTC-06:00)

Tiangong - Pass Details

Date: 26 November 2022
Orbit: 383 x 386 km, 41.5° (Epoch: 28 January)

Event Time Altitude Azimuth Distance (km) Brightness Sun altitude
Rises 17:41:49 0° 198° (SSW) 2,250 2.3 -13.6°
Reaches altitude 10° 17:44:54 10° 165° (SSE) 1,405 0.7 -14.2°
Maximum altitude 17:46:11 12° 141° (SE) 1,301 0.3 -14.5°
Enters shadow 17:46:27 12° 136° (SE) 1,306 0.3 -14.5°
